MYNN Airport Information

Runway Information
Runway 09 Length 8273 ft width 150 ft
Elevation 14 ft Threshold 0 ft Heading 90
Runway 27 Length 8273 ft Width 150 ft
Elevation 13 ft Threshold 0 ft Heading 270
Runway 14 Length 11353 ft width 150 ft
Elevation 13 ft Threshold 0 ft Heading 135
Runway 32 Length 11353 ft Width 150 ft
Elevation 14 ft Threshold 0 ft Heading 315
Airport Frequencies
Type APP Name APP Frequency 121 MHZ
Type ATIS Name ATIS Frequency 118.7 MHZ
Type CLD Name CLNC DEL Frequency 118.3 MHZ
Type CTAF Name CTAF Frequency 122.95 MHZ
Type GND Name GND Frequency 121.7 MHZ
Type RDO Name RDO Frequency 128 MHZ
Type TWR Name TWR Frequency 119.5 MHZ
Type UNIC Name UNICOM Frequency 123 MHZ
Airport Navaids
Type VOR-DME Name Nassau Frequency 112700 KHZ
Type NDB Name Nassau Frequency 251 KHZ
Airport Weather Information & NOTAM
ADDS - METARS form results

(0951 UTC 23 July 2018)
 
METAR text: MYNN 230900Z 20004KT 9999 VCTS SCT015CB BKN200 27/24 A2993 RMK CB W-E LTG W
Conditions at: MYNN (NASSAU INTL , BS) observed 0900 UTC 23 July 2018
Temperature: 27.0°C (81°F)
Dewpoint: 24.0°C (75°F) [RH = 84%]
Pressure (altimeter): 29.93 inches Hg (1013.6 mb)
Winds: from the SSW (200 degrees) at 5 MPH (4 knots; 2.1 m/s)
Visibility: 6 or more miles (10+ km)
Ceiling: 20000 feet AGL
Clouds: scattered clouds at 1500 feet AGL
broken clouds at 20000 feet AGL
Weather: VCTS  (thunderstorm in vicinity)